Regional Weather Roundup
Issued by NWS

Home | Current Version | Previous Version | Graphics & Text | Print | Product List | Glossary On
Versions: 1 2 3 4 5 6 7 8 9 10 11 12 13 14 15 16 17 18 19 20 21 22 23 24 25 26 27
000
ASUS45 KCYS 302210
RWRWY

WYOMING REGIONAL WEATHER ROUNDUP
NATIONAL WEATHER SERVICE CHEYENNE WY
400 PM MDT TUE AUG 30 2016

NOTE:  "FAIR" INDICATES FEW OR NO CLOUDS BELOW 12,000 FEET
WITH NO SIGNIFICANT WEATHER AND/OR OBSTRUCTIONS TO VISIBILITY.

WYZ001-302300-
YELLOWSTONE NATIONAL PARK

CITY           SKY/WX    TMP DP  RH WIND       PRES   REMARKS
LK YELLOWSTONE   N/A     76  31  19 E7        30.38F
W YELLOWSTONE  NOT AVBL

$$
WYZ002>013-054>058-071-098>099-302300-
NORTHERN WYOMING

CITY           SKY/WX    TMP DP  RH WIND       PRES   REMARKS
JACKSON        SUNNY     86  25  10 SW9       30.24F
CODY           FAIR      88  34  14 E9G17     30.15F
GREYBULL       FAIR      95  30  10 S8        30.07F
WORLAND        FAIR      94  29  10 SW7       30.09F
SHERIDAN       FAIR      94  33  11 SE14      30.08F
BUFFALO        FAIR      87  28  12 SE17      30.18F
GILLETTE       FAIR      88  38  17 S14G25    30.18F
HULETT         FAIR      88  41  19 SW6       30.21S
NEWCASTLE      FAIR      84  36  17 S12G24    30.22F

$$
WYZ014>020-022>026-101>103-302300-
CENTRAL WYOMING

CITY           SKY/WX    TMP DP  RH WIND       PRES   REMARKS
BIG PINEY      FAIR      84  28  13 CALM      30.32F
PINEDALE       FAIR      81  25  12 SE6       30.33F
DUBOIS         FAIR      77  21  12 SE12G18   30.31F
LANDER         FAIR      89  30  12 E7        30.22F
RIVERTON       FAIR      86  34  15 SE6       30.22F
CASPER         FAIR      86  35  16 VRB3      30.23F
DOUGLAS        FAIR      86  36  16 SE15G25   30.24F

$$
WYZ021-027>030-104>119-302300-
SOUTHERN WYOMING

CITY           SKY/WX    TMP DP  RH WIND       PRES   REMARKS
EVANSTON       FAIR      83  21  10 NE16G22   30.30F
FORT BRIDGER   FAIR      83  22  10 E6        30.33F
ROCK SPRINGS   FAIR      83  16   8 E9G17     30.29F
DIXON          FAIR      86  32  14 S7G17     30.28F
RAWLINS        FAIR      84  24  11 NE15G22   30.31F
SARATOGA       FAIR      81  28  15 W8        30.32F
LARAMIE        FAIR      73  41  31 SE10      30.37S
CHEYENNE       FAIR      75  50  41 SE14      30.34F
TORRINGTON     FAIR      85  47  26 SE10      30.21F
PINE BLUFFS    FAIR      73  50  43 S5        30.29F

$$




USA.gov is the U.S. government's official web portal to all federal, state and local government web resources and services.